#timestamp,LO_Frequency,Hit,StdDev 
1513098015.8,286047009.7,N
1513098035.7,286047010.9,N
1513098055.5,286047010.0,N
1513098075.3,286047005.1,N
1513098095.2,286046995.0,N
1513098115.9,286046983.3,N
1513098135.7,286046978.1,N
1513098155.6,286046967.8,Y
1513098175.4,286046965.5,P
1513098195.2,286046963.4,N
1513098215.1,286046959.0,N
1513098216.0,286046959.0,N
1513098235.8,286046956.2,N
1513098255.6,286046956.3,N
1513098275.4,286046958.6,N
1513098295.3,286046952.2,Y
1513098315.1,286046986.5,P
1513098335.9,286046981.3,N
1513098355.7,286046979.4,N
1513098375.5,286046979.4,N
1513098395.4,286046976.2,Y
1513098415.2,286046996.7,P
1513098435.0,286046993.7,N
1513098435.9,286046993.7,N
1513098455.7,286046999.9,N
1513098475.6,286047000.5,N
1513098495.4,286047003.5,N
1513098515.2,286047004.2,N
1513098535.1,286047007.2,N
1513098536.0,286047007.2,N
1513098555.8,286047003.8,N
1513098575.6,286047001.1,N
1513098595.5,286046993.6,N
1513098615.3,286046995.4,N
1513098635.1,286046999.9,N
1513098655.9,286046998.3,N
1513098675.7,286047000.2,N
1513098695.5,286046999.3,N
1513098715.3,286046999.2,N
1513098735.2,286046994.9,N
1513098755.0,286046990.8,N
1513098755.9,286046990.8,N
1513098775.7,286046997.0,N
1513098795.6,286046996.7,N
1513098815.4,286046995.0,N
1513098835.2,286046994.1,N
1513098855.1,286046990.2,N
1513098856.0,286046990.2,N
1513098875.8,286046987.9,N
1513098895.6,286046989.3,N
1513098915.5,286046986.2,N
1513098935.3,286046987.5,N
1513098955.1,286046985.3,N
1513098975.9,286046987.2,N
1513098995.7,286046992.5,N
1513099015.5,286046994.0,N
1513099035.3,286046991.3,N
1513099055.2,286046987.0,N
1513099075.0,286046991.2,N
1513099075.9,286046991.2,N
1513099095.7,286046991.9,N
1513099115.6,286046994.5,N
1513099135.4,286046995.2,N
1513099155.2,286046995.1,N
1513099175.1,286046998.5,N
1513099176.0,286046998.5,N
1513099195.8,286046998.8,N
1513099215.6,286047002.5,N
1513099235.5,286046996.5,N
1513099255.3,286046998.4,N
1513099275.1,286047005.9,N
1513099295.9,286047004.7,N
1513099315.7,286047006.7,N
1513099335.5,286047005.0,N
1513099355.3,286047007.4,N
1513099375.2,286047007.5,N
1513099395.0,286047006.8,N
1513099395.9,286047006.8,N
1513099415.7,286047013.5,N
1513099435.6,286047018.0,N
1513099455.4,286047021.4,N
1513099475.2,286047015.7,N
1513099495.1,286047024.7,N
1513099496.0,286047024.7,N
1513099515.8,286047023.2,N
1513099535.6,286047017.9,N
1513099555.5,286047015.1,N
1513099575.3,286047012.2,N
1513099595.1,286047012.2,N
1513099615.9,286047013.9,N
1513099635.7,286047012.0,N
1513099655.5,286047013.8,N
1513099675.4,286047010.0,N
1513099695.2,286047006.3,N
1513099715.0,286047006.6,N
1513099715.9,286047006.6,N
1513099735.8,286047007.5,N
1513099755.6,286047006.1,N
1513099775.4,286047010.1,N
1513099795.2,286047011.7,N
1513099815.1,286047014.0,N
1513099816.0,286047014.0,N
1513099835.8,286047011.1,N
1513099855.6,286047011.3,N
1513099875.5,286047013.3,N
1513099895.3,286047013.9,N
1513099915.1,286047010.4,N
1513099935.9,286047013.0,N
1513099955.3,286047014.7,N
1513099975.1,286047011.8,N
1513099995.9,286047014.0,N
1513100015.7,286047014.5,Y
1513100035.6,286046995.2,P
1513100055.4,286046994.6,N
1513100075.2,286046994.5,N
1513100095.0,286046992.7,N
1513100095.9,286046992.7,N
1513100115.8,286046990.0,N
1513100135.6,286046985.0,N
1513100155.4,286046982.8,N
1513100175.3,286046988.1,N
1513100195.1,286046987.7,N
1513100215.8,286046989.0,N
1513100235.7,286046987.6,N
1513100255.5,286046984.3,N
1513100275.3,286046984.3,N
1513100295.2,286046977.4,Y
1513100315.9,286046990.0,P
1513100335.7,286046989.8,P
1513100355.6,286046991.6,P
1513100375.4,286046992.8,Y
1513100395.2,286047001.6,P
1513100415.1,286047000.1,N
1513100416.0,286047000.1,N
1513100435.8,286047002.2,N
1513100455.6,286047000.4,N
1513100475.5,286046998.5,N
1513100495.3,286046999.4,N
1513100515.1,286047000.0,N
1513100535.8,286047000.6,N
1513100555.7,286047005.3,N
1513100575.5,286047006.4,N
1513100595.3,286047005.7,N
1513100615.2,286047005.7,N
1513100635.0,286047006.6,N
1513100635.9,286047006.6,N
1513100655.7,286047010.8,N
1513100675.6,286047011.9,N
1513100695.4,286047013.2,N
1513100715.2,286047013.5,N
1513100735.1,286047005.4,N
1513100736.0,286047005.4,N
1513100755.8,286047004.4,N
1513100775.6,286047003.3,N
1513100795.5,286047007.7,N
1513100815.3,286047010.8,N
1513100835.1,286047004.9,N
1513100855.9,286047005.3,N
1513100875.7,286047000.5,N
1513100895.5,286046995.4,N
1513100915.3,286046995.1,N
1513100935.2,286046999.7,N
1513100955.0,286046997.7,N
1513100955.9,286046997.7,N
1513100975.7,286046994.1,N
1513100995.6,286046997.5,N
1513101015.4,286046999.5,N
1513101035.2,286047000.2,N
1513101055.1,286046996.5,N
1513101056.0,286046996.5,N
1513101075.8,286046995.8,N
1513101095.6,286046993.0,N
1513101115.5,286046993.2,N
1513101135.3,286046988.9,N
1513101155.1,286046987.9,N
1513101175.9,286046987.8,N
1513101195.7,286046984.0,N
1513101215.5,286046988.7,N
1513101235.4,286046989.6,N
1513101255.2,286046984.0,N
1513101275.0,286046981.7,N
1513101275.9,286046981.7,N
1513101295.7,286046980.1,N
1513101315.6,286046978.7,N
1513101335.4,286046981.5,N
1513101355.2,286046989.8,N
1513101375.1,286046986.6,N
1513101376.0,286046986.6,N
1513101395.8,286046988.4,N
1513101415.6,286046997.7,N
1513101435.5,286046999.1,N
1513101455.3,286046999.4,N
1513101475.1,286046993.3,N
1513101495.9,286046994.4,N
1513101515.7,286046993.2,N
1513101535.5,286046994.1,N
1513101555.4,286046991.8,N
1513101575.2,286046988.5,N
1513101595.0,286046986.1,N
1513101595.9,286046986.1,N
